Passo Fundo, Brazil
Current Conditions -  °F | °C
As of 3:00 PM on Friday 19 Dec 2014 (Local Time) from SBPF Reporting Station
Broken Clouds Broken Clouds  
Wind Chill: 84°   Ceiling: 4500
Heat Index: 86°   Visibility: 6mi
Dew Point: 64°   Wind: 12mph
Humidity: 51%   Direction: 260°W
Pressure: 29.8"   Gusts: NA
Location:  28.25°S, 52.42°W
Report Text: SBPF 191700Z 26010KT 9999 BKN045 29/18 Q1009
Loading
Personal Weather Stations






























Interactive Weather Map New forecast layout! Learn more

10-Day Weather Forecast

Advertisements
Track Severe Weather on mobile